Temp
56 56 57 57 58 58 58 58 59 59 60 60 60 60 60 60 60 60 60 61 61 62 62 63 63 64 64 65 65 64 64 65 66 66 66 66 66 66 66 66 66 66 66 65 65 64 64 63 63 63 64 64 65 65 64 64 63 62 62 62 61 61 60 61 62 64 65 65 65
56 56 57 57 57 57 58 58 59 59 60 60 60 60 60 60 60 60 60 61 61 62 62 63 63 63 63 65 65 65 65 64 65 66 66 66 66 66 66 66 66 66 66 65 64 64 63 63 63 62 63 63 64 64 63 63 62 62 61 61 61 60 60 60 61 63 64 65 64
56 56 56 57 57 57 57 57 58 58 59 60 60 60 60 60 60 60 60 61 62 62 62 62 62 63 63 64 64 65 65 65 65 65 65 65 66 66 66 66 66 66 66 65 65 64 63 63 62 62 62 62 63 63 62 62 62 61 61 61 60 60 60 60 60 62 63 64 64
56 56 56 56 56 57 57 57 57 58 59 59 60 60 60 60 60 60 60 61 61 61 62 62 61 62 63 63 64 64 65 65 65 66 65 65 65 66 66 66 66 66 66 66 65 64 64 63 62 62 62 62 62 62 62 62 61 61 61 61 60 60 59 60 60 60 61 63 63
56 56 56 56 56 56 57 57 57 57 58 59 59 59 59 60 60 60 60 60 60 61 61 62 61 61 62 63 64 64 64 65 64 65 65 65 65 66 66 65 65 65 65 65 65 64 64 63 62 62 62 62 62 62 62 62 61 61 61 61 60 60 59 59 59 60 60 61 62
56 57 57 57 57 57 57 57 57 57 57 57 56 57 58 59 59 59 59 60 60 61 61 62 61 61 62 63 63 64 64 64 64 64 64 65 65 65 66 65 65 65 65 65 64 64 63 63 62 62 62 61 62 62 62 62 61 61 61 60 60 60 60 59 59 59 60 60 61
57 57 57 57 57 57 57 57 57 57 57 56 56 56 57 58 59 59 59 60 60 61 61 61 61 61 62 63 63 63 64 64 64 64 64 64 64 64 64 65 65 65 65 64 64 63 63 63 62 62 61 61 61 62 62 62 61 61 60 60 60 60 60 60 60 60 60 60 61
57 57 57 57 57 57 57 57 57 56 56 56 56 57 58 59 59 59 59 60 60 60 60 60 61 62 62 63 63 63 63 63 64 64 64 63 63 63 63 64 64 64 64 64 64 63 62 62 63 62 62 61 61 61 61 62 61 60 60 60 60 60 60 60 60 60 60 61 62
57 57 57 57 57 57 57 58 57 57 56 56 57 57 58 59 59 59 59 59 59 60 60 60 61 62 62 62 63 63 63 63 63 63 63 63 63 63 63 63 63 63 64 64 63 63 62 62 62 63 62 61 61 61 61 61 61 60 60 60 60 60 60 60 60 60 61 62 62
57 57 57 57 58 58 58 58 58 58 57 57 58 58 59 59 59 59 59 59 60 60 60 61 61 62 62 62 62 63 63 63 63 63 63 63 63 63 63 63 63 63 63 63 63 62 62 61 62 62 62 62 61 61 60 61 60 60 59 59 59 59 59 60 60 61 61 62 63
57 58 58 58 58 58 58 58 57 57 57 57 58 58 59 59 59 59 60 60 60 60 60 61 61 62 62 62 62 62 63 63 63 63 63 63 63 63 63 63 63 63 63 62 62 62 61 61 61 61 61 61 61 61 60 60 60 60 59 59 59 59 59 59 60 60 61 62 63
57 58 58 58 58 58 58 57 57 57 57 57 57 58 58 58 59 60 60 60 60 60 61 61 61 61 61 62 62 62 63 63 63 63 63 63 63 63 63 63 63 63 63 62 62 61 61 61 61 61 61 61 60 60 60 60 60 60 59 59 59 59 59 59 59 60 61 62 62
57 58 58 58 58 58 58 57 57 57 57 57 57 58 58 59 60 60 60 59 59 60 60 61 61 61 61 62 62 62 62 62 63 62 62 63 63 63 63 63 63 63 62 62 62 61 61 61 61 60 60 60 60 60 60 60 60 59 59 58 58 58 58 59 60 60 61 61 61
57 57 57 58 58 58 57 57 57 57 58 58 58 58 59 60 60 60 59 59 59 60 60 61 61 61 61 62 62 62 62 62 62 62 62 62 62 62 62 62 63 62 62 62 61 61 61 61 61 60 60 60 60 60 60 60 60 59 59 58 58 58 59 59 60 60 60 60 60
57 57 57 58 57 57 57 57 57 58 58 58 58 59 59 60 60 60 59 59 60 60 60 60 61 61 61 62 62 62 62 62 62 62 61 61 61 62 62 62 62 62 62 61 61 61 61 61 61 60 60 60 60 60 60 60 59 59 59 58 58 59 59 59 59 60 60 60 59
57 57 58 58 58 57 57 57 57 57 58 58 59 59 60 60 60 60 60 60 60 60 61 61 61 61 62 62 62 62 62 61 61 61 61 60 60 61 61 61 61 61 61 61 60 60 61 61 61 61 60 60 60 60 60 60 59 59 59 59 59 59 59 59 59 60 60 59 59
56 57 57 57 57 57 57 57 57 57 57 58 59 59 60 60 60 60 60 60 61 61 61 61 61 62 62 62 62 61 61 61 60 60 60 60 60 60 60 60 60 60 60 60 60 60 60 60 60 60 60 60 60 60 60 60 59 59 59 59 59 59 59 59 59 59 59 59 59
53 54 55 56 56 57 57 57 57 57 58 58 59 59 59 60 60 60 60 61 61 61 61 61 61 61 62 62 61 61 61 60 60 60 60 60 60 60 60 60 60 60 60 60 60 60 60 60 60 60 60 60 60 60 60 60 59 59 59 59 59 59 59 59 60 60 59 59 59
49 50 52 53 54 56 56 57 57 57 58 58 59 59 60 60 60 60 60 61 61 61 61 61 61 61 61 62 61 61 60 60 60 60 60 60 60 60 60 60 60 60 60 60 60 59 59 60 60 60 60 60 60 60 60 60 60 60 59 59 59 60 60 60 60 60 60 60 60
48 48 48 49 51 52 54 56 57 58 58 59 59 59 60 60 60 60 60 60 61 61 61 60 60 60 61 61 61 61 61 61 60 60 60 60 60 60 60 60 60 60 60 60 59 59 59 59 59 59 59 59 59 59 60 60 60 60 59 59 60 60 60 60 60 60 60 60 60
47 48 48 48 48 49 50 52 53 55 56 57 57 58 58 59 60 60 60 61 61 61 60 60 60 60 60 61 61 61 61 60 60 60 60 60 60 60 60 60 60 60 60 60 60 60 59 59 59 59 59 59 59 59 59 59 59 59 59 59 59 60 60 60 60 60 61 61 61
47 47 47 48 48 48 48 48 49 50 50 51 51 52 54 56 58 60 60 60 60 60 60 60 60 60 60 60 60 60 60 60 60 60 60 60 60 60 60 60 60 60 60 60 60 60 60 59 59 59 59 59 59 59 59 59 59 59 59 59 59 59 60 60 60 60 61 61 61
47 47 47 47 47 48 48 48 48 48 48 48 48 49 49 51 54 57 59 60 60 60 60 60 60 60 60 60 60 60 60 60 60 60 60 60 60 60 60 60 60 60 60 60 60 60 60 59 59 59 59 59 59 59 59 59 59 59 59 59 59 59 59 60 60 60 60 61 61
46 47 47 47 47 47 47 47 47 47 47 47 48 48 48 48 49 51 54 57 58 59 60 60 60 60 60 60 60 60 60 60 60 60 60 60 60 60 60 60 60 60 60 60 60 59 59 59 59 59 59 59 59 59 59 59 59 59 59 58 58 59 59 59 59 60 60 60 60
46 46 46 46 46 46 46 46 46 46 46 47 47 47 47 48 48 48 48 49 51 53 55 58 59 60 60 60 60 60 60 60 60 60 60 60 60 60 60 60 60 60 60 59 57 57 57 58 59 59 59 59 59 59 59 59 59 59 58 58 58 58 58 58 59 59 59 60 60
46 46 46 46 46 46 46 46 46 46 46 46 47 47 47 47 47 48 48 47 48 48 50 51 54 57 58 60 60 60 60 60 60 60 60 60 60 60 60 60 60 60 59 57 56 56 57 57 58 58 59 60 59 59 59 59 59 59 58 58 58 58 58 58 58 58 59 59 60
45 45 45 46 46 46 45 46 46 46 46 46 46 46 46 46 47 47 47 47 48 48 48 48 49 51 53 57 58 59 59 59 59 59 60 60 60 60 60 60 60 60 59 56 55 55 56 57 57 58 58 59 59 59 59 58 58 58 58 58 58 58 58 58 58 58 58 59 59
45 45 45 45 45 45 45 46 45 45 45 45 46 46 46 46 46 46 46 46 47 47 48 48 48 49 49 51 53 55 57 58 58 58 58 58 59 59 60 60 60 59 57 55 54 55 56 56 56 57 57 58 59 59 59 58 58 58 58 58 58 58 58 58 58 58 58 58 58
44 44 45 45 45 45 45 45 45 45 45 45 45 46 46 46 46 46 46 46 46 46 46 47 48 48 48 48 48 49 51 54 56 57 58 57 58 58 58 58 58 57 56 54 55 55 55 55 55 56 56 57 58 59 59 59 58 58 58 58 58 58 58 58 58 58 58 57 57
44 44 44 44 44 44 44 44 45 45 45 45 45 45 45 45 45 45 45 45 45 45 46 46 47 47 47 47 47 48 48 49 51 53 56 57 57 57 57 57 57 56 54 54 55 55 55 55 55 55 55 56 57 58 59 59 58 58 58 58 58 58 58 57 58 57 57 57 56
43 43 44 44 44 44 44 44 45 45 45 45 45 45 45 44 44 44 45 45 45 45 46 46 46 46 46 47 47 47 47 48 48 49 50 52 55 56 57 57 57 55 54 53 54 55 55 54 54 54 54 55 56 58 59 58 58 58 58 58 58 58 57 57 57 57 56 56 55
42 43 43 43 43 43 44 44 44 44 45 44 44 44 44 44 44 44 44 45 45 45 45 45 45 45 45 46 46 46 46 47 47 47 47 48 49 51 53 55 55 54 53 52 54 54 54 54 54 54 54 54 56 57 58 58 58 57 58 58 58 58 57 57 57 56 55 55 54
42 42 42 42 43 43 43 44 44 44 44 44 44 44 44 44 44 44 44 44 45 44 44 44 44 44 44 45 45 45 45 46 46 46 47 47 47 47 47 48 49 49 49 50 52 53 54 54 54 53 53 53 55 57 57 57 57 57 57 57 57 57 57 57 57 56 55 54 54
41 41 42 42 42 42 43 43 44 44 44 44 44 44 44 43 43 44 44 44 44 44 44 44 44 44 44 44 44 44 44 45 45 45 46 46 46 46 46 46 46 47 48 49 51 52 53 54 54 53 53 53 55 56 56 56 56 56 55 55 56 56 56 56 56 55 55 54 54
40 41 41 41 41 42 42 42 43 43 43 43 43 43 43 43 43 43 43 44 44 44 44 44 44 44 44 44 44 44 44 44 44 44 45 45 45 45 45 45 46 46 47 48 49 50 51 52 53 53 53 53 54 55 55 55 54 54 54 54 54 54 54 55 55 55 54 54 54
40 40 40 41 41 41 41 42 42 42 42 42 42 42 43 43 43 43 44 44 44 44 43 43 43 43 43 43 43 43 43 43 43 44 44 44 44 44 44 44 45 46 46 47 47 48 49 50 51 52 53 53 54 54 53 53 53 53 53 53 53 53 53 53 53 53 53 53 53
40 40 40 40 40 40 41 41 41 41 41 41 42 42 42 42 43 43 43 44 43 43 43 43 43 43 42 42 42 42 43 43 43 43 43 43 43 43 44 44 44 45 46 46 47 47 47 47 48 49 50 51 51 51 52 52 52 51 51 51 51 51 51 51 51 51 52 52 51
40 40 40 40 40 40 40 40 40 40 41 41 41 42 42 42 42 43 43 43 43 42 42 42 42 42 42 42 42 42 42 42 42 42 42 43 43 43 43 43 44 44 45 46 46 47 47 46 46 46 46 46 47 48 49 49 49 49 49 49 49 49 49 49 50 50 50 50 49
39 39 40 40 40 40 40 40 40 40 40 40 41 41 42 42 42 42 43 43 43 42 42 42 41 42 42 42 42 42 42 42 42 42 42 42 42 42 42 43 43 44 45 46 46 46 47 47 46 46 45 44 44 45 45 46 46 46 46 46 46 46 46 47 47 48 48 48 47
37 38 38 39 39 40 40 40 40 40 40 40 41 41 41 41 42 42 42 43 43 42 42 42 41 42 42 42 42 42 41 42 42 42 42 42 42 42 42 42 43 43 44 45 46 46 46 46 46 46 45 44 44 44 44 44 44 43 43 43 43 43 43 44 45 46 46 47 47
37 37 37 38 39 39 39 39 39 40 40 40 40 41 41 41 42 42 42 42 42 42 42 42 42 42 42 42 41 41 41 41 41 41 41 41 42 42 42 42 42 43 44 45 46 46 46 46 46 46 45 44 43 43 43 43 42 42 42 42 42 42 42 42 43 44 45 46 46
MSLP
1003.96 1004.08 1004.08 1004.16 1004.20 1004.24 1004.20 1004.12 1004.08 1004.04 1003.96 1003.96 1003.84 1003.80 1003.84 1003.88 1003.92 1003.92 1003.92 1003.92 1003.92 1003.88 1003.88 1003.88 1003.84 1003.88 1003.92 1003.92 1003.96 1004.08 1004.16 1004.20 1004.16 1004.12 1004.12 1004.16 1004.20 1004.24 1004.32 1004.32 1004.36 1004.48 1004.64 1004.84 1005.12 1005.44 1005.68 1005.76 1005.80 1005.76 1005.76 1005.88 1006.08 1006.24 1006.48 1006.68 1006.96 1007.32 1007.68 1007.96 1008.16 1008.40 1008.68 1008.96 1009.12 1009.24 1009.36 1009.56 1009.60
1003.64 1003.68 1003.80 1003.84 1003.92 1003.96 1003.96 1003.96 1003.92 1003.88 1003.80 1003.76 1003.68 1003.64 1003.64 1003.64 1003.64 1003.64 1003.64 1003.64 1003.64 1003.64 1003.68 1003.68 1003.64 1003.68 1003.68 1003.68 1003.72 1003.80 1003.84 1003.92 1003.92 1003.88 1003.84 1003.80 1003.88 1003.96 1004.04 1004.08 1004.08 1004.16 1004.32 1004.52 1004.80 1005.08 1005.36 1005.48 1005.56 1005.60 1005.60 1005.68 1005.80 1005.96 1006.16 1006.40 1006.60 1006.96 1007.28 1007.60 1007.84 1008.12 1008.44 1008.76 1008.96 1009.12 1009.32 1009.52 1009.52
1003.32 1003.40 1003.52 1003.60 1003.64 1003.68 1003.72 1003.72 1003.68 1003.68 1003.64 1003.60 1003.52 1003.52 1003.48 1003.40 1003.40 1003.36 1003.36 1003.36 1003.40 1003.44 1003.40 1003.40 1003.36 1003.36 1003.40 1003.44 1003.48 1003.52 1003.52 1003.56 1003.64 1003.64 1003.56 1003.52 1003.56 1003.68 1003.76 1003.80 1003.80 1003.88 1004.04 1004.24 1004.44 1004.68 1004.92 1005.12 1005.28 1005.36 1005.36 1005.44 1005.52 1005.68 1005.88 1006.12 1006.32 1006.60 1006.88 1007.20 1007.52 1007.84 1008.16 1008.40 1008.68 1008.92 1009.20 1009.44 1009.52
1003.00 1003.08 1003.20 1003.24 1003.28 1003.32 1003.36 1003.40 1003.44 1003.48 1003.48 1003.40 1003.36 1003.36 1003.28 1003.24 1003.20 1003.16 1003.16 1003.20 1003.24 1003.24 1003.20 1003.12 1003.12 1003.12 1003.12 1003.12 1003.16 1003.20 1003.20 1003.24 1003.24 1003.28 1003.24 1003.24 1003.24 1003.28 1003.36 1003.48 1003.56 1003.60 1003.68 1003.84 1004.08 1004.24 1004.44 1004.72 1004.96 1005.08 1005.12 1005.20 1005.24 1005.36 1005.56 1005.88 1006.12 1006.32 1006.52 1006.80 1007.20 1007.52 1007.80 1008.08 1008.36 1008.64 1008.92 1009.24 1009.44
1002.76 1002.84 1002.92 1002.96 1002.96 1002.96 1003.04 1003.08 1003.16 1003.24 1003.28 1003.28 1003.24 1003.08 1003.00 1002.96 1002.96 1002.96 1002.96 1003.00 1002.96 1002.96 1002.92 1002.92 1002.96 1002.92 1002.88 1002.88 1002.84 1002.84 1002.84 1002.88 1002.92 1002.92 1002.92 1002.84 1002.88 1002.92 1002.96 1003.08 1003.12 1003.20 1003.32 1003.48 1003.68 1003.84 1004.04 1004.28 1004.52 1004.72 1004.88 1005.00 1005.08 1005.08 1005.24 1005.52 1005.88 1006.08 1006.24 1006.52 1006.84 1007.08 1007.36 1007.68 1008.00 1008.28 1008.64 1009.08 1009.36
1002.52 1002.56 1002.64 1002.68 1002.68 1002.72 1002.80 1002.80 1002.84 1002.96 1003.04 1003.12 1003.08 1002.96 1002.76 1002.68 1002.64 1002.68 1002.68 1002.68 1002.68 1002.68 1002.68 1002.68 1002.68 1002.64 1002.60 1002.60 1002.56 1002.52 1002.52 1002.52 1002.52 1002.52 1002.52 1002.52 1002.52 1002.52 1002.56 1002.64 1002.68 1002.76 1002.88 1003.04 1003.24 1003.48 1003.68 1003.92 1004.12 1004.36 1004.56 1004.80 1004.88 1004.96 1005.04 1005.28 1005.64 1005.84 1006.00 1006.28 1006.48 1006.72 1007.00 1007.28 1007.52 1007.92 1008.36 1008.84 1009.24
1002.28 1002.36 1002.40 1002.40 1002.48 1002.52 1002.52 1002.52 1002.52 1002.64 1002.72 1002.80 1002.80 1002.68 1002.48 1002.28 1002.24 1002.28 1002.32 1002.32 1002.40 1002.40 1002.40 1002.40 1002.40 1002.36 1002.32 1002.24 1002.24 1002.16 1002.12 1002.08 1002.08 1002.08 1002.12 1002.16 1002.24 1002.24 1002.24 1002.20 1002.24 1002.36 1002.44 1002.52 1002.80 1003.08 1003.32 1003.44 1003.68 1003.96 1004.24 1004.48 1004.68 1004.80 1004.96 1005.08 1005.36 1005.60 1005.76 1005.92 1006.12 1006.36 1006.56 1006.80 1007.08 1007.48 1007.92 1008.40 1008.88
1002.08 1002.12 1002.16 1002.20 1002.24 1002.24 1002.24 1002.28 1002.28 1002.36 1002.44 1002.48 1002.44 1002.32 1002.12 1001.96 1001.96 1001.96 1002.04 1002.08 1002.12 1002.08 1002.08 1002.08 1002.04 1002.00 1001.96 1001.92 1001.80 1001.76 1001.76 1001.76 1001.72 1001.72 1001.76 1001.88 1001.96 1001.96 1001.96 1001.92 1001.92 1001.96 1002.04 1002.16 1002.40 1002.72 1002.96 1003.08 1003.24 1003.52 1003.80 1004.08 1004.36 1004.52 1004.72 1004.88 1005.08 1005.32 1005.48 1005.60 1005.76 1005.96 1006.16 1006.40 1006.72 1007.08 1007.44 1007.92 1008.36
1001.92 1001.92 1001.96 1001.96 1001.96 1001.96 1002.00 1002.04 1002.04 1002.08 1002.08 1002.08 1002.00 1001.96 1001.80 1001.76 1001.72 1001.76 1001.80 1001.80 1001.76 1001.80 1001.80 1001.76 1001.68 1001.64 1001.56 1001.52 1001.44 1001.40 1001.36 1001.36 1001.36 1001.32 1001.36 1001.52 1001.60 1001.68 1001.72 1001.72 1001.60 1001.56 1001.64 1001.76 1002.00 1002.32 1002.56 1002.76 1002.88 1003.04 1003.32 1003.68 1003.92 1004.16 1004.36 1004.52 1004.80 1005.00 1005.16 1005.36 1005.48 1005.60 1005.76 1006.00 1006.32 1006.68 1007.08 1007.44 1007.72
1001.64 1001.68 1001.68 1001.68 1001.68 1001.68 1001.68 1001.72 1001.72 1001.72 1001.68 1001.64 1001.56 1001.52 1001.52 1001.52 1001.48 1001.44 1001.40 1001.40 1001.40 1001.44 1001.44 1001.36 1001.32 1001.28 1001.24 1001.12 1001.04 1001.00 1001.04 1001.04 1001.00 1001.04 1001.08 1001.16 1001.24 1001.32 1001.40 1001.40 1001.36 1001.28 1001.28 1001.44 1001.64 1001.92 1002.20 1002.44 1002.56 1002.68 1002.92 1003.24 1003.48 1003.72 1003.96 1004.20 1004.40 1004.68 1004.88 1005.08 1005.24 1005.32 1005.44 1005.64 1005.96 1006.40 1006.80 1007.08 1007.16
1001.44 1001.40 1001.40 1001.40 1001.36 1001.36 1001.40 1001.44 1001.40 1001.40 1001.36 1001.32 1001.24 1001.16 1001.16 1001.16 1001.12 1001.08 1001.08 1001.04 1001.08 1001.04 1000.96 1000.92 1000.96 1000.96 1000.88 1000.76 1000.72 1000.68 1000.68 1000.68 1000.72 1000.72 1000.76 1000.76 1000.80 1000.88 1001.00 1001.04 1001.04 1000.96 1000.96 1001.08 1001.32 1001.60 1001.88 1002.08 1002.24 1002.40 1002.60 1002.84 1003.12 1003.40 1003.64 1003.80 1003.96 1004.24 1004.52 1004.76 1004.96 1005.08 1005.20 1005.32 1005.68 1006.20 1006.60 1006.68 1006.68
1001.24 1001.24 1001.20 1001.12 1001.12 1001.08 1001.12 1001.16 1001.16 1001.16 1001.12 1001.08 1000.96 1000.92 1000.84 1000.80 1000.76 1000.72 1000.72 1000.72 1000.68 1000.60 1000.52 1000.52 1000.52 1000.52 1000.52 1000.44 1000.36 1000.32 1000.36 1000.40 1000.40 1000.40 1000.40 1000.40 1000.40 1000.48 1000.56 1000.64 1000.68 1000.64 1000.64 1000.76 1001.00 1001.28 1001.52 1001.72 1001.92 1002.08 1002.28 1002.52 1002.80 1003.08 1003.24 1003.36 1003.60 1003.84 1004.12 1004.40 1004.68 1004.92 1005.08 1005.20 1005.52 1005.96 1006.28 1006.36 1006.36
1001.08 1001.08 1001.00 1000.92 1000.88 1000.88 1000.88 1000.84 1000.80 1000.80 1000.80 1000.76 1000.76 1000.68 1000.60 1000.48 1000.40 1000.36 1000.40 1000.40 1000.24 1000.20 1000.16 1000.16 1000.16 1000.12 1000.12 1000.08 1000.04 1000.04 1000.04 1000.08 1000.08 1000.08 1000.08 1000.04 1000.04 1000.08 1000.16 1000.24 1000.28 1000.28 1000.36 1000.52 1000.68 1000.96 1001.16 1001.36 1001.56 1001.76 1001.96 1002.16 1002.40 1002.64 1002.84 1003.00 1003.24 1003.48 1003.80 1004.12 1004.48 1004.72 1004.92 1005.08 1005.36 1005.68 1005.92 1006.00 1006.04
1001.00 1000.96 1000.88 1000.80 1000.76 1000.76 1000.68 1000.60 1000.48 1000.44 1000.40 1000.40 1000.40 1000.40 1000.32 1000.20 1000.08 1000.04 1000.04 1000.04 999.96 999.84 999.80 999.80 999.80 999.80 999.76 999.72 999.68 999.68 999.72 999.76 999.76 999.72 999.68 999.68 999.68 999.68 999.76 999.80 999.80 999.92 1000.04 1000.24 1000.44 1000.64 1000.80 1001.04 1001.24 1001.44 1001.64 1001.80 1002.04 1002.24 1002.48 1002.68 1002.92 1003.12 1003.44 1003.80 1004.12 1004.40 1004.68 1004.88 1005.08 1005.32 1005.52 1005.68 1005.80
1000.84 1000.80 1000.76 1000.68 1000.64 1000.60 1000.56 1000.44 1000.28 1000.16 1000.08 1000.08 1000.04 1000.00 999.96 999.84 999.72 999.68 999.68 999.72 999.64 999.56 999.52 999.52 999.44 999.36 999.36 999.36 999.36 999.36 999.36 999.36 999.36 999.36 999.32 999.28 999.28 999.32 999.36 999.36 999.44 999.52 999.72 999.96 1000.16 1000.36 1000.52 1000.72 1000.96 1001.16 1001.36 1001.52 1001.72 1001.96 1002.20 1002.44 1002.68 1002.92 1003.16 1003.48 1003.76 1004.04 1004.36 1004.60 1004.80 1005.04 1005.24 1005.40 1005.60
1000.80 1000.68 1000.60 1000.56 1000.52 1000.44 1000.36 1000.24 1000.08 999.96 999.88 999.80 999.68 999.64 999.52 999.40 999.28 999.28 999.32 999.36 999.32 999.32 999.32 999.24 999.12 999.04 999.04 999.04 999.08 999.08 999.08 999.08 999.08 999.00 998.96 998.92 998.96 998.96 999.00 999.08 999.12 999.24 999.36 999.60 999.84 1000.08 1000.24 1000.44 1000.64 1000.84 1001.08 1001.24 1001.44 1001.68 1001.92 1002.16 1002.44 1002.68 1002.96 1003.20 1003.52 1003.80 1004.04 1004.28 1004.52 1004.80 1005.04 1005.24 1005.44
1000.84 1000.68 1000.52 1000.44 1000.36 1000.20 1000.04 999.92 999.80 999.68 999.64 999.52 999.40 999.28 999.20 999.08 999.00 998.96 998.96 998.96 999.00 999.00 998.96 998.92 998.80 998.76 998.68 998.68 998.76 998.80 998.84 998.80 998.72 998.64 998.56 998.56 998.60 998.68 998.76 998.84 998.92 999.00 999.12 999.32 999.52 999.76 999.96 1000.20 1000.40 1000.60 1000.80 1000.96 1001.16 1001.36 1001.64 1001.92 1002.24 1002.52 1002.76 1003.00 1003.28 1003.52 1003.80 1004.00 1004.24 1004.56 1004.84 1005.08 1005.24
1001.12 1000.88 1000.60 1000.36 1000.12 999.92 999.72 999.52 999.44 999.36 999.24 999.20 999.12 999.04 998.96 998.92 998.80 998.72 998.68 998.68 998.72 998.72 998.68 998.68 998.64 998.52 998.40 998.40 998.40 998.48 998.52 998.52 998.40 998.28 998.24 998.24 998.32 998.44 998.56 998.68 998.80 998.92 999.00 999.08 999.24 999.44 999.68 999.92 1000.16 1000.40 1000.52 1000.68 1000.88 1001.08 1001.36 1001.72 1002.08 1002.40 1002.64 1002.84 1003.08 1003.36 1003.56 1003.80 1004.08 1004.36 1004.68 1004.92 1005.08
1001.40 1001.12 1000.84 1000.52 1000.16 999.84 999.52 999.32 999.16 999.08 998.96 998.96 998.92 998.80 998.76 998.68 998.60 998.52 998.52 998.48 998.40 998.40 998.40 998.40 998.36 998.24 998.12 998.00 998.00 998.08 998.12 998.12 998.08 998.08 998.04 998.08 998.12 998.24 998.40 998.52 998.68 998.80 998.92 999.00 999.08 999.24 999.40 999.64 999.88 1000.08 1000.28 1000.44 1000.68 1000.96 1001.28 1001.68 1002.00 1002.28 1002.52 1002.68 1002.88 1003.12 1003.36 1003.60 1003.88 1004.16 1004.40 1004.68 1004.88
1001.76 1001.52 1001.28 1000.96 1000.52 1000.12 999.72 999.36 999.12 998.96 998.88 998.80 998.72 998.64 998.52 998.44 998.40 998.32 998.24 998.16 998.08 998.08 998.08 998.08 998.00 997.92 997.80 997.64 997.64 997.68 997.72 997.80 997.84 997.88 997.92 997.96 997.96 998.08 998.20 998.36 998.52 998.68 998.80 998.92 999.04 999.12 999.24 999.44 999.64 999.84 1000.08 1000.36 1000.68 1001.00 1001.32 1001.60 1001.84 1002.08 1002.24 1002.44 1002.60 1002.84 1003.08 1003.36 1003.64 1003.88 1004.12 1004.40 1004.64
1002.12 1001.92 1001.68 1001.36 1001.00 1000.64 1000.24 999.92 999.68 999.48 999.32 999.12 999.00 998.80 998.56 998.36 998.16 998.00 997.88 997.80 997.76 997.76 997.80 997.76 997.72 997.68 997.52 997.36 997.28 997.32 997.40 997.52 997.68 997.80 997.80 997.84 997.88 997.96 998.04 998.20 998.36 998.52 998.68 998.80 998.96 999.08 999.20 999.36 999.52 999.80 1000.12 1000.44 1000.76 1001.00 1001.24 1001.40 1001.64 1001.80 1002.04 1002.24 1002.44 1002.68 1002.92 1003.16 1003.36 1003.56 1003.80 1004.08 1004.32
1002.52 1002.24 1001.96 1001.64 1001.32 1000.96 1000.68 1000.40 1000.20 1000.08 999.92 999.72 999.52 999.24 998.92 998.52 998.04 997.64 997.44 997.44 997.52 997.56 997.60 997.52 997.56 997.52 997.44 997.28 997.16 997.16 997.24 997.40 997.56 997.68 997.76 997.80 997.84 997.92 998.00 998.16 998.32 998.48 998.68 998.80 998.96 999.12 999.28 999.44 999.68 999.96 1000.24 1000.52 1000.76 1000.96 1001.08 1001.28 1001.48 1001.68 1001.88 1002.08 1002.32 1002.56 1002.80 1002.96 1003.16 1003.28 1003.48 1003.72 1003.96
1002.88 1002.56 1002.24 1001.84 1001.48 1001.16 1000.92 1000.68 1000.52 1000.36 1000.16 999.84 999.56 999.36 999.16 998.76 998.32 997.84 997.48 997.28 997.36 997.48 997.52 997.48 997.48 997.44 997.36 997.28 997.16 997.12 997.24 997.40 997.56 997.68 997.76 997.80 997.92 998.00 998.12 998.24 998.40 998.52 998.64 998.80 998.96 999.12 999.36 999.52 999.76 1000.00 1000.24 1000.48 1000.68 1000.88 1001.08 1001.20 1001.36 1001.56 1001.80 1002.04 1002.24 1002.48 1002.72 1002.88 1003.04 1003.16 1003.28 1003.48 1003.76
1003.28 1002.92 1002.52 1002.12 1001.80 1001.52 1001.24 1000.96 1000.80 1000.52 1000.24 999.96 999.92 999.88 999.72 999.44 999.16 998.76 998.32 997.96 997.92 997.88 997.76 997.52 997.48 997.44 997.36 997.32 997.24 997.24 997.36 997.48 997.56 997.68 997.80 997.92 998.00 998.08 998.16 998.24 998.36 998.44 998.52 998.68 998.80 998.96 999.16 999.36 999.68 999.88 1000.08 1000.32 1000.52 1000.76 1000.96 1001.16 1001.36 1001.52 1001.76 1001.96 1002.20 1002.40 1002.64 1002.80 1002.92 1002.96 1003.12 1003.36 1003.68
1003.60 1003.24 1002.84 1002.52 1002.20 1001.88 1001.60 1001.36 1001.20 1001.04 1000.92 1000.96 1000.88 1000.68 1000.40 1000.08 999.80 999.48 999.16 998.96 998.88 998.68 998.40 998.08 997.80 997.64 997.52 997.44 997.36 997.40 997.48 997.52 997.64 997.76 997.84 997.96 998.00 998.08 998.16 998.24 998.32 998.40 998.48 998.60 998.72 998.84 999.00 999.20 999.40 999.68 999.92 1000.16 1000.40 1000.68 1000.88 1001.08 1001.28 1001.52 1001.68 1001.92 1002.12 1002.36 1002.52 1002.72 1002.76 1002.84 1003.04 1003.36 1003.72
1003.84 1003.48 1003.12 1002.80 1002.52 1002.24 1002.04 1001.84 1001.68 1001.56 1001.44 1001.36 1001.12 1000.80 1000.52 1000.20 999.80 999.52 999.28 999.12 999.04 998.96 998.84 998.72 998.48 998.16 997.88 997.64 997.52 997.52 997.52 997.60 997.68 997.76 997.84 997.96 998.04 998.12 998.20 998.24 998.32 998.40 998.48 998.56 998.68 998.80 998.92 999.08 999.24 999.44 999.68 999.96 1000.28 1000.52 1000.80 1000.96 1001.20 1001.36 1001.56 1001.80 1002.00 1002.24 1002.40 1002.52 1002.64 1002.80 1003.04 1003.32 1003.68
1004.08 1003.72 1003.40 1003.08 1002.72 1002.44 1002.24 1002.08 1001.84 1001.68 1001.52 1001.36 1001.16 1000.92 1000.64 1000.32 1000.00 999.80 999.72 999.68 999.52 999.36 999.24 999.08 998.92 998.72 998.40 998.08 997.80 997.68 997.64 997.68 997.68 997.76 997.80 997.92 998.00 998.08 998.16 998.24 998.28 998.36 998.44 998.56 998.68 998.80 998.92 999.04 999.16 999.36 999.52 999.80 1000.08 1000.32 1000.56 1000.80 1001.08 1001.28 1001.48 1001.68 1001.88 1002.08 1002.24 1002.36 1002.52 1002.68 1002.88 1003.12 1003.44
1004.32 1003.96 1003.64 1003.24 1002.88 1002.68 1002.44 1002.20 1001.96 1001.80 1001.68 1001.56 1001.44 1001.24 1000.96 1000.64 1000.48 1000.40 1000.40 1000.36 1000.20 1000.04 999.80 999.64 999.48 999.24 998.96 998.68 998.52 998.28 998.08 997.92 997.84 997.88 997.88 997.92 997.96 998.04 998.08 998.16 998.24 998.32 998.40 998.56 998.72 998.80 998.88 998.96 999.08 999.24 999.36 999.64 999.84 1000.08 1000.40 1000.64 1000.92 1001.16 1001.36 1001.56 1001.76 1001.96 1002.08 1002.24 1002.36 1002.52 1002.68 1002.92 1003.12
1004.56 1004.20 1003.80 1003.48 1003.16 1002.92 1002.68 1002.52 1002.36 1002.24 1002.12 1001.96 1001.80 1001.60 1001.36 1001.12 1001.08 1001.00 1000.96 1000.84 1000.76 1000.68 1000.60 1000.44 1000.20 999.88 999.60 999.36 999.16 998.96 998.68 998.48 998.28 998.20 998.12 998.08 998.08 998.12 998.12 998.20 998.24 998.28 998.40 998.52 998.60 998.72 998.84 998.92 999.00 999.08 999.24 999.44 999.68 999.96 1000.24 1000.52 1000.72 1000.96 1001.20 1001.40 1001.60 1001.76 1001.92 1002.08 1002.28 1002.44 1002.64 1002.84 1003.08
1004.84 1004.48 1004.12 1003.80 1003.56 1003.32 1003.12 1003.00 1002.88 1002.76 1002.60 1002.40 1002.20 1001.96 1001.76 1001.64 1001.60 1001.52 1001.52 1001.44 1001.40 1001.36 1001.28 1001.08 1000.80 1000.52 1000.28 1000.12 999.92 999.68 999.44 999.20 998.96 998.76 998.56 998.44 998.40 998.32 998.32 998.36 998.40 998.44 998.52 998.56 998.56 998.64 998.72 998.80 998.88 998.96 999.12 999.36 999.56 999.80 1000.08 1000.32 1000.56 1000.80 1001.04 1001.24 1001.40 1001.60 1001.80 1001.96 1002.16 1002.36 1002.56 1002.80 1003.08
1005.24 1004.88 1004.52 1004.24 1004.00 1003.80 1003.68 1003.52 1003.36 1003.24 1003.08 1002.88 1002.64 1002.44 1002.32 1002.24 1002.24 1002.20 1002.08 1002.08 1002.00 1001.88 1001.68 1001.40 1001.20 1001.00 1000.92 1000.80 1000.64 1000.44 1000.24 999.96 999.72 999.56 999.40 999.20 998.92 998.68 998.56 998.52 998.56 998.60 998.68 998.68 998.68 998.68 998.68 998.72 998.80 998.88 999.04 999.24 999.52 999.72 999.96 1000.16 1000.40 1000.60 1000.80 1001.00 1001.24 1001.40 1001.64 1001.80 1002.04 1002.20 1002.40 1002.68 1003.04
1005.68 1005.32 1005.00 1004.72 1004.52 1004.32 1004.16 1003.96 1003.84 1003.68 1003.52 1003.32 1003.12 1003.00 1002.92 1002.88 1002.80 1002.72 1002.64 1002.52 1002.36 1002.12 1001.88 1001.68 1001.48 1001.36 1001.24 1001.16 1001.08 1000.92 1000.72 1000.52 1000.36 1000.24 1000.08 999.96 999.72 999.48 999.24 999.08 999.08 999.12 999.08 998.88 998.76 998.76 998.80 998.80 998.84 998.92 999.08 999.28 999.52 999.68 999.92 1000.08 1000.24 1000.44 1000.68 1000.84 1001.04 1001.24 1001.44 1001.68 1001.92 1002.08 1002.32 1002.56 1002.92
1006.08 1005.80 1005.52 1005.24 1005.08 1004.88 1004.68 1004.48 1004.32 1004.12 1003.96 1003.80 1003.68 1003.56 1003.48 1003.36 1003.24 1003.08 1002.96 1002.80 1002.68 1002.48 1002.28 1002.08 1001.92 1001.84 1001.76 1001.64 1001.52 1001.36 1001.20 1001.04 1000.96 1000.80 1000.68 1000.52 1000.32 1000.16 1000.00 999.92 999.92 999.88 999.68 999.36 999.04 998.84 998.80 998.88 998.96 999.08 999.24 999.44 999.60 999.72 999.88 1000.08 1000.24 1000.40 1000.60 1000.80 1000.96 1001.12 1001.28 1001.48 1001.68 1001.96 1002.16 1002.44 1002.76
1006.52 1006.28 1006.04 1005.80 1005.60 1005.36 1005.16 1004.96 1004.72 1004.52 1004.36 1004.20 1004.08 1004.04 1003.96 1003.80 1003.64 1003.48 1003.32 1003.24 1003.08 1002.96 1002.76 1002.56 1002.48 1002.40 1002.28 1002.20 1002.08 1001.92 1001.76 1001.60 1001.48 1001.36 1001.24 1001.04 1000.84 1000.68 1000.52 1000.40 1000.36 1000.24 999.96 999.68 999.48 999.20 998.96 998.88 999.00 999.24 999.40 999.60 999.68 999.80 999.92 1000.08 1000.24 1000.40 1000.60 1000.76 1000.92 1001.04 1001.16 1001.32 1001.48 1001.68 1001.96 1002.20 1002.52
1007.08 1006.80 1006.56 1006.28 1006.08 1005.84 1005.64 1005.40 1005.16 1004.96 1004.72 1004.60 1004.48 1004.40 1004.32 1004.20 1004.08 1003.96 1003.80 1003.68 1003.44 1003.24 1003.08 1002.96 1002.84 1002.76 1002.68 1002.56 1002.48 1002.36 1002.20 1002.08 1001.96 1001.84 1001.72 1001.52 1001.36 1001.16 1001.04 1000.96 1000.88 1000.68 1000.40 1000.08 999.88 999.68 999.44 999.20 999.08 999.20 999.40 999.64 999.76 999.84 999.96 1000.04 1000.20 1000.36 1000.52 1000.68 1000.80 1000.96 1001.08 1001.24 1001.36 1001.48 1001.68 1001.96 1002.24
1007.68 1007.36 1007.08 1006.80 1006.52 1006.28 1006.04 1005.80 1005.56 1005.32 1005.08 1004.96 1004.88 1004.76 1004.64 1004.48 1004.44 1004.36 1004.20 1003.96 1003.68 1003.52 1003.36 1003.24 1003.12 1003.00 1002.92 1002.84 1002.80 1002.76 1002.68 1002.56 1002.40 1002.28 1002.16 1002.00 1001.80 1001.68 1001.52 1001.40 1001.32 1001.12 1000.92 1000.68 1000.44 1000.24 1000.04 999.80 999.60 999.48 999.44 999.52 999.68 999.80 999.96 1000.04 1000.12 1000.28 1000.44 1000.56 1000.76 1000.92 1001.04 1001.16 1001.28 1001.40 1001.56 1001.80 1002.08
1008.24 1007.92 1007.60 1007.32 1007.00 1006.76 1006.52 1006.24 1005.96 1005.72 1005.52 1005.40 1005.28 1005.16 1005.00 1004.80 1004.68 1004.56 1004.40 1004.20 1003.96 1003.80 1003.68 1003.56 1003.44 1003.36 1003.28 1003.24 1003.24 1003.20 1003.12 1003.04 1002.88 1002.72 1002.60 1002.44 1002.24 1002.08 1001.96 1001.80 1001.68 1001.52 1001.36 1001.16 1000.96 1000.80 1000.64 1000.48 1000.32 1000.12 999.96 999.84 999.84 999.92 999.96 1000.08 1000.16 1000.28 1000.40 1000.52 1000.68 1000.80 1000.96 1001.08 1001.24 1001.36 1001.52 1001.72 1001.96
1008.76 1008.44 1008.08 1007.80 1007.52 1007.24 1006.96 1006.68 1006.44 1006.24 1006.04 1005.88 1005.72 1005.52 1005.36 1005.16 1004.96 1004.80 1004.68 1004.52 1004.40 1004.24 1004.08 1003.96 1003.84 1003.80 1003.72 1003.68 1003.56 1003.52 1003.44 1003.36 1003.24 1003.12 1002.96 1002.84 1002.68 1002.56 1002.40 1002.20 1002.08 1001.92 1001.76 1001.56 1001.36 1001.20 1001.08 1000.96 1000.84 1000.72 1000.64 1000.52 1000.40 1000.28 1000.24 1000.20 1000.24 1000.36 1000.44 1000.52 1000.68 1000.84 1000.96 1001.08 1001.20 1001.32 1001.48 1001.64 1001.80
1009.28 1008.96 1008.68 1008.32 1008.04 1007.76 1007.48 1007.20 1006.96 1006.76 1006.56 1006.40 1006.12 1005.88 1005.68 1005.52 1005.36 1005.20 1005.08 1004.92 1004.76 1004.64 1004.52 1004.40 1004.28 1004.20 1004.08 1003.96 1003.80 1003.72 1003.64 1003.56 1003.52 1003.36 1003.28 1003.20 1003.08 1002.96 1002.80 1002.60 1002.44 1002.28 1002.12 1001.96 1001.76 1001.60 1001.48 1001.36 1001.24 1001.20 1001.12 1001.08 1001.00 1000.88 1000.72 1000.60 1000.56 1000.60 1000.64 1000.72 1000.88 1001.00 1001.08 1001.16 1001.24 1001.36 1001.44 1001.56 1001.76
1009.80 1009.44 1009.12 1008.80 1008.52 1008.24 1007.96 1007.72 1007.52 1007.32 1007.08 1006.84 1006.60 1006.36 1006.12 1005.96 1005.80 1005.64 1005.40 1005.20 1005.04 1004.92 1004.80 1004.68 1004.64 1004.52 1004.40 1004.24 1004.08 1003.96 1003.84 1003.80 1003.68 1003.64 1003.52 1003.44 1003.32 1003.20 1003.08 1002.92 1002.76 1002.60 1002.40 1002.24 1002.08 1001.96 1001.80 1001.68 1001.60 1001.56 1001.52 1001.52 1001.48 1001.36 1001.28 1001.16 1001.08 1001.04 1001.04 1001.08 1001.16 1001.24 1001.36 1001.40 1001.40 1001.44 1001.52 1001.64 1001.76
1010.24 1009.92 1009.56 1009.28 1008.96 1008.72 1008.48 1008.24 1008.00 1007.80 1007.56 1007.32 1007.08 1006.88 1006.68 1006.48 1006.24 1005.96 1005.72 1005.52 1005.36 1005.24 1005.08 1005.00 1004.92 1004.80 1004.68 1004.52 1004.36 1004.24 1004.12 1004.04 1003.96 1003.88 1003.80 1003.68 1003.52 1003.36 1003.24 1003.12 1003.00 1002.84 1002.68 1002.52 1002.36 1002.20 1002.08 1002.00 1001.92 1001.84 1001.80 1001.84 1001.80 1001.80 1001.72 1001.68 1001.60 1001.56 1001.52 1001.52 1001.52 1001.52 1001.56 1001.64 1001.68 1001.68 1001.68 1001.72 1001.80
Wind_Speed
13 12 11 10 9 9 9 9 9 9 9 9 9 9 9 10 10 10 9 9 10 10 9 9 9 10 11 13 13 13 14 16 18 18 18 18 18 18 19 18 17 16 16 15 16 16 17 17 13 11 10 11 13 14 14 13 14 15 15 15 13 13 14 14 13 13 13 13 12
14 14 13 12 10 9 8 8 8 9 9 8 9 9 10 10 10 10 10 10 10 9 9 9 10 11 13 15 14 14 15 16 18 18 18 19 19 19 19 17 18 18 18 17 16 15 15 16 13 10 9 10 12 13 13 13 14 16 17 18 14 13 13 15 15 14 13 13 11
14 14 13 12 11 10 8 8 8 9 10 10 9 9 10 10 9 9 10 10 10 10 10 9 10 12 14 15 15 15 15 15 17 17 17 17 19 20 20 18 19 20 20 19 17 15 14 15 12 10 9 9 12 13 13 13 14 16 17 19 14 12 12 13 14 13 11 9 10
14 14 13 13 14 13 12 9 10 10 11 10 11 11 10 10 9 9 10 10 11 11 11 10 10 11 13 14 15 16 16 16 17 18 18 18 19 21 21 20 21 21 22 21 19 17 16 16 12 10 10 11 13 13 13 12 14 15 15 16 13 12 12 12 12 11 9 8 9
14 14 13 13 15 14 13 12 11 11 11 10 10 10 10 10 9 9 10 10 11 11 11 12 12 12 12 14 16 17 17 18 17 17 17 18 20 21 22 22 22 22 22 22 20 18 18 18 13 11 10 11 12 12 14 15 15 15 14 13 12 12 12 12 11 10 9 7 7
13 14 14 13 14 14 13 12 13 13 12 11 11 11 11 10 10 10 11 11 12 13 14 15 14 14 14 15 16 17 17 17 17 16 17 18 19 20 22 24 24 23 22 22 21 20 19 19 13 11 11 11 11 12 14 18 16 16 15 13 13 12 13 13 12 11 11 9 10
13 13 14 14 14 14 13 13 13 13 12 11 13 14 14 13 13 13 13 13 12 13 14 14 14 15 15 16 16 16 16 16 16 17 17 17 17 19 21 23 24 23 22 21 21 20 18 18 14 12 12 12 11 12 15 18 17 16 16 16 14 14 15 16 14 13 14 15 15
13 14 14 14 15 15 15 15 14 13 12 11 13 15 16 15 15 16 15 14 14 13 13 13 15 16 17 17 16 16 16 17 16 16 16 16 17 19 21 23 23 23 22 21 21 20 18 16 15 14 13 12 11 12 15 19 19 18 18 17 15 15 15 16 15 15 17 20 19
12 13 14 15 16 16 16 17 16 15 14 14 15 16 17 16 17 17 16 15 15 14 14 13 16 18 18 18 17 17 16 16 16 15 15 15 17 18 20 22 23 22 21 20 20 20 19 15 14 14 14 13 12 12 15 20 21 21 19 17 15 15 16 16 17 18 19 22 21
12 13 14 15 16 17 17 17 17 17 17 17 18 19 18 18 18 17 16 15 14 15 15 15 16 17 18 18 17 17 17 16 15 15 16 16 17 19 20 20 22 21 20 19 18 19 19 15 14 15 15 14 15 15 17 20 22 22 19 14 14 16 17 17 19 20 21 21 22
13 14 14 14 15 16 16 16 15 15 15 16 17 18 19 19 19 18 17 15 15 16 16 16 17 17 17 16 16 16 16 15 14 15 17 18 18 20 20 21 22 21 19 18 17 17 16 15 15 16 17 16 17 18 19 22 23 22 20 15 15 17 18 19 19 20 20 19 20
14 14 15 14 15 15 15 14 13 12 13 14 15 15 16 17 18 18 17 17 17 17 17 17 17 17 16 14 14 14 15 15 16 16 17 19 20 21 22 22 22 21 19 19 17 16 15 16 16 18 19 19 17 17 18 23 23 23 21 18 17 18 19 20 19 17 16 16 17
14 14 14 14 15 15 15 14 12 11 12 13 14 14 14 14 16 17 17 17 17 16 16 16 16 16 15 14 14 14 14 15 17 17 18 19 20 22 22 23 22 21 20 18 17 16 16 17 18 19 20 20 17 16 18 23 23 23 22 20 20 20 20 20 19 17 15 15 15
12 12 12 13 14 14 13 13 11 11 11 13 13 13 13 14 14 15 15 16 16 16 15 15 14 14 14 15 15 16 16 16 17 18 19 20 20 21 22 22 22 21 20 18 18 18 18 19 19 20 20 21 19 18 19 22 22 22 22 22 22 22 21 19 18 17 16 17 16
11 12 12 12 12 12 11 12 10 10 11 12 13 13 13 13 13 13 13 14 14 14 14 14 13 13 14 16 17 17 17 16 17 18 19 20 19 20 21 21 21 21 20 19 19 19 20 21 20 20 20 21 20 19 20 21 21 21 21 21 22 22 21 18 17 17 18 18 18
12 12 13 12 12 12 11 11 10 10 10 11 12 13 13 12 11 11 12 13 12 12 12 13 14 14 14 16 17 17 17 17 17 17 18 18 18 18 18 18 20 20 20 20 20 20 20 20 19 20 20 21 20 20 20 21 21 21 21 21 21 21 21 19 19 19 19 19 19
12 13 14 13 14 14 13 12 10 10 10 12 12 12 12 11 10 10 11 12 11 11 12 14 14 14 14 15 16 16 16 16 16 16 16 17 17 16 16 16 17 18 19 20 20 20 20 19 18 18 19 20 20 20 20 21 20 20 20 20 20 21 21 20 20 20 19 19 20
10 11 11 12 13 13 14 14 12 12 12 12 11 11 10 10 10 10 10 12 12 13 14 15 14 14 15 16 16 15 15 14 14 14 15 16 16 16 16 15 15 15 16 18 19 19 19 18 17 17 17 17 17 18 18 19 19 19 20 21 21 21 21 20 21 20 19 20 20
14 14 13 12 10 10 11 12 13 13 12 12 11 11 11 11 11 11 11 12 14 15 16 15 15 15 16 18 17 15 14 13 13 14 14 15 15 15 15 15 14 14 14 15 15 16 16 16 16 15 15 15 15 15 17 18 19 19 20 21 22 22 22 22 22 21 20 20 20
15 15 15 15 14 12 10 8 9 11 11 11 11 11 12 12 13 13 14 15 15 15 15 14 13 14 15 17 17 15 13 11 12 12 12 13 14 14 14 14 14 13 12 12 12 12 13 13 13 13 13 14 14 15 16 18 18 19 20 19 21 22 22 22 23 22 22 21 21
15 15 14 14 15 15 15 14 12 10 9 9 9 10 11 13 15 16 17 16 14 13 12 11 10 11 11 13 15 14 12 9 10 10 11 11 12 12 13 13 13 12 11 10 10 11 11 12 12 12 12 13 13 14 15 17 17 17 18 16 18 19 21 22 23 23 23 22 20
14 14 13 13 14 15 15 16 17 16 15 14 14 14 13 12 11 12 13 12 11 9 9 9 8 8 8 8 10 10 9 7 8 8 9 9 10 10 11 11 12 12 11 11 12 12 12 12 12 13 13 12 13 13 14 14 14 15 15 15 16 17 18 19 21 22 21 20 18
14 13 13 13 14 15 16 16 16 16 16 16 17 18 18 17 14 9 5 7 7 7 7 7 7 7 6 5 5 6 6 6 6 6 7 7 9 10 10 10 12 13 13 12 13 13 13 13 13 13 13 12 12 12 12 12 12 13 13 14 15 15 15 16 17 17 17 16 15
14 14 13 12 15 15 16 16 17 17 18 19 19 18 17 17 18 16 13 7 4 4 5 5 6 6 6 5 4 4 5 5 5 5 5 6 7 8 10 10 11 12 13 12 12 13 14 12 13 13 13 12 12 12 11 11 11 12 12 13 14 14 13 13 14 14 14 14 13
14 14 14 14 15 16 16 17 17 17 17 17 16 15 15 15 15 17 17 17 15 13 11 8 5 4 5 6 6 6 6 5 6 6 5 5 6 6 7 8 9 9 10 9 12 14 15 13 12 12 12 12 12 11 11 12 12 12 12 12 12 12 12 12 12 13 13 14 14
14 15 16 16 16 17 17 17 17 16 16 15 15 15 15 15 16 17 18 19 18 18 17 16 13 9 5 4 6 7 7 7 8 8 8 7 7 7 7 6 6 7 7 8 13 16 17 17 15 13 12 12 12 11 11 12 12 12 12 12 12 12 12 11 12 12 13 13 14
15 16 17 17 18 18 18 18 18 18 18 17 17 17 17 17 18 19 20 20 19 18 17 17 16 15 12 9 4 2 4 5 7 8 9 10 10 10 9 7 7 6 6 8 13 16 18 19 18 16 14 12 12 11 11 11 12 12 13 12 12 12 12 12 12 12 12 12 13
16 17 17 19 19 19 19 19 20 20 20 19 19 18 18 19 20 20 20 19 19 18 16 15 15 14 13 13 13 11 8 4 1 3 5 7 9 10 10 8 7 7 8 10 13 16 17 18 18 18 16 13 12 11 11 10 11 11 11 11 11 12 13 13 12 11 11 11 10
17 18 19 20 20 20 20 20 21 20 20 19 19 20 20 20 20 20 19 19 18 16 14 12 12 12 13 14 16 17 16 14 9 5 2 2 4 5 5 5 5 6 8 12 15 16 17 17 18 18 17 14 11 9 9 9 9 10 10 10 10 11 12 12 12 11 11 11 10
19 19 19 20 20 20 20 20 19 19 19 18 20 21 21 20 20 19 19 18 17 15 12 11 12 13 14 15 15 16 16 16 15 13 10 6 2 2 3 2 2 2 5 10 14 16 17 16 17 17 16 15 11 9 8 9 9 9 9 9 10 11 11 12 12 12 12 11 10
20 20 20 20 20 20 19 19 19 19 19 18 20 21 21 20 19 18 17 16 14 13 13 13 14 15 15 15 14 15 15 15 16 16 16 15 11 6 3 1 1 1 3 7 12 14 15 15 15 16 15 14 11 8 8 8 9 9 9 9 10 11 12 11 12 12 13 12 12
21 21 21 21 21 20 19 19 18 18 19 19 20 20 19 19 18 16 15 14 14 14 15 16 16 16 16 15 15 15 15 15 16 16 16 16 16 14 12 9 8 7 5 3 9 12 14 14 13 14 14 14 10 9 8 8 8 9 9 10 12 13 13 12 12 12 14 14 13
21 21 21 21 21 20 19 19 18 18 18 18 18 18 18 17 16 16 15 14 14 15 15 16 16 16 16 16 15 15 15 15 16 16 16 15 16 16 16 14 12 14 15 13 5 9 13 14 13 13 13 14 10 9 8 8 8 8 8 10 12 14 15 15 14 14 15 15 14
21 21 21 20 20 20 19 19 18 18 18 18 18 17 17 16 16 16 15 14 13 13 14 14 14 14 14 14 15 15 15 14 15 15 15 15 15 15 14 13 11 15 20 21 13 5 9 14 15 15 15 15 10 8 8 9 8 8 8 9 11 12 14 15 15 15 15 16 14
21 21 20 20 20 19 19 19 19 19 19 18 18 17 17 16 16 15 14 14 13 13 13 13 13 13 13 13 14 15 15 15 15 15 15 15 15 15 15 14 13 18 23 24 21 14 6 7 13 16 16 14 9 8 8 9 9 9 10 10 10 11 12 13 13 14 15 15 15
21 20 20 20 20 20 20 19 19 19 19 19 18 18 17 16 15 14 13 14 14 14 14 14 14 14 14 14 13 14 14 15 14 14 14 14 14 14 14 14 14 18 22 24 24 22 18 11 3 7 11 11 8 7 7 8 8 9 10 11 11 11 11 11 12 12 13 14 15
21 21 20 20 20 20 20 19 20 20 20 19 18 17 17 16 15 14 14 14 14 15 15 14 15 14 14 13 13 13 13 14 14 14 14 14 14 14 14 13 13 15 18 22 22 22 22 21 17 11 5 1 2 4 6 6 6 8 9 10 10 11 11 10 11 12 13 14 15
21 21 20 20 20 19 19 19 20 20 20 19 18 17 16 16 15 14 14 14 14 14 14 14 14 14 13 13 12 12 13 13 14 14 14 14 14 14 13 13 13 13 15 19 20 20 20 21 21 19 15 8 5 1 1 3 4 6 7 7 8 8 9 8 9 10 12 14 15
21 20 20 20 20 20 20 20 20 19 19 18 18 17 17 16 15 14 14 13 13 13 13 13 14 13 12 12 11 11 12 13 13 14 14 13 14 14 14 13 13 13 14 17 18 18 18 18 18 17 15 10 8 5 3 2 2 3 4 4 5 5 5 5 6 7 9 13 15
20 20 20 19 19 19 19 19 19 18 17 17 18 17 17 16 15 14 14 13 13 13 12 12 13 12 12 11 11 11 12 13 13 13 13 13 13 14 14 13 13 13 14 16 17 17 17 16 16 15 13 9 7 6 5 4 3 3 3 3 3 3 3 3 3 4 7 10 13
19 20 20 20 19 19 19 19 18 17 17 17 17 16 14 14 15 15 15 14 14 13 12 11 12 12 12 11 10 11 12 13 13 13 13 13 13 13 13 13 13 13 14 15 17 18 17 16 15 14 12 8 6 5 5 4 4 4 4 3 3 3 3 2 2 3 4 6 8
Wind_Direction
211 213 215 217 220 223 225 226 227 227 226 224 221 219 218 219 219 219 219 220 222 224 226 227 229 231 232 231 228 226 226 226 223 221 220 220 221 222 221 218 211 205 201 201 204 208 210 208 202 195 190 189 188 187 185 182 180 180 182 185 186 186 187 190 195 196 194 194 193
210 212 214 216 219 222 226 227 229 229 229 228 227 225 223 223 223 222 221 221 223 224 226 228 229 230 231 233 232 230 228 228 225 223 221 220 221 222 221 219 214 209 205 201 201 204 206 206 201 196 191 189 188 187 186 183 179 178 179 182 183 183 184 187 192 194 194 194 193
210 211 213 214 215 217 221 225 228 231 232 232 230 229 228 227 226 225 225 224 225 227 228 229 229 230 231 232 232 231 229 228 225 224 222 221 221 221 220 219 215 211 207 202 199 198 199 198 196 193 191 190 188 187 185 182 179 177 178 180 179 179 182 186 187 187 188 192 192
210 211 212 214 214 216 218 221 227 231 233 232 230 228 227 227 226 226 226 227 228 229 229 230 231 231 231 231 231 230 229 227 226 225 225 224 223 221 219 217 213 211 208 204 199 195 191 189 190 191 192 192 190 188 185 181 180 179 179 179 176 176 178 182 181 181 182 189 193
210 211 212 214 214 215 216 219 223 228 232 234 233 229 226 223 224 225 226 227 227 228 230 231 233 234 233 233 231 230 228 227 225 225 224 224 223 221 218 214 212 209 207 203 197 192 187 185 186 189 192 194 194 193 189 182 182 182 181 178 177 177 176 177 175 175 176 184 193
212 213 215 217 216 216 217 218 220 225 231 238 240 236 228 220 220 221 223 225 228 230 232 233 234 235 236 235 232 229 226 224 223 223 224 226 226 223 218 214 211 208 204 200 196 191 187 184 185 187 189 192 196 198 194 186 186 187 186 182 182 180 177 177 174 172 173 180 190
214 216 217 219 219 220 221 222 222 225 229 238 241 238 231 221 219 220 223 227 229 231 232 233 233 234 234 234 232 229 225 223 223 224 225 228 229 227 221 215 209 204 200 197 194 191 189 186 187 189 190 192 195 198 197 191 189 189 189 187 185 183 181 181 178 176 177 182 188
217 219 220 222 223 225 226 227 227 228 230 235 238 237 233 225 222 222 225 228 230 231 231 232 232 233 233 232 230 228 227 227 227 226 225 227 230 229 225 217 208 201 195 192 191 190 189 189 191 191 191 191 192 194 194 192 190 190 190 188 186 184 183 183 180 181 184 188 190
218 220 222 224 226 228 229 229 229 229 229 231 232 233 233 231 227 226 227 228 229 230 230 231 231 232 232 231 230 229 229 230 230 229 227 226 227 228 227 221 210 201 194 190 189 188 187 189 193 193 192 192 191 190 189 188 188 189 191 189 187 185 183 182 183 186 191 196 196
220 221 223 225 226 227 229 230 231 231 230 230 229 229 230 231 230 228 227 227 228 228 227 228 229 230 231 230 229 230 230 232 232 232 230 227 224 224 224 222 211 203 196 189 186 185 185 188 193 193 192 191 190 188 185 184 186 188 189 189 187 185 183 183 185 190 196 202 199
226 226 226 226 226 226 227 229 232 233 233 232 229 228 227 228 228 227 226 226 226 226 226 226 227 229 230 230 229 229 230 231 232 232 231 228 223 221 221 220 212 203 194 185 183 183 184 188 191 191 189 188 188 187 185 184 184 186 187 187 187 186 185 184 187 193 198 202 198
231 230 229 229 227 226 226 227 230 232 234 235 233 231 229 227 226 226 226 225 226 226 226 226 227 228 230 231 230 230 230 231 232 232 231 228 223 219 216 215 209 201 192 184 183 183 184 188 189 188 186 184 186 187 187 186 185 185 186 186 186 187 187 186 188 192 196 196 192
234 234 233 232 230 230 229 228 227 228 230 233 234 234 233 231 228 226 226 226 227 227 227 227 227 228 229 231 231 231 231 231 231 230 229 226 221 216 211 208 202 196 190 185 184 184 186 188 188 187 185 183 184 184 185 186 185 185 185 184 186 188 188 187 187 188 188 186 185
241 242 240 238 236 235 235 232 230 227 227 230 233 235 236 235 230 227 227 228 228 228 228 227 226 226 228 229 232 232 232 231 229 227 225 221 216 211 206 201 197 192 189 187 186 185 186 188 188 187 184 183 182 182 182 184 184 184 184 183 185 187 188 186 186 185 183 182 182
252 250 248 246 243 242 242 242 239 235 233 234 235 235 234 234 229 226 225 228 229 229 229 227 226 225 226 227 230 232 232 230 225 221 217 213 209 204 201 197 194 191 189 187 186 186 187 187 187 185 183 181 180 179 179 181 182 182 182 182 185 186 186 184 185 185 184 183 183
258 255 252 249 246 245 246 246 246 244 241 240 239 236 234 232 228 226 225 227 229 229 229 228 227 225 225 225 227 228 228 225 218 212 207 203 200 197 195 194 191 189 187 184 184 185 185 185 184 182 181 180 178 177 176 178 179 180 180 181 184 185 185 183 184 185 185 185 185
273 266 261 255 250 247 245 244 244 243 241 241 240 239 237 235 232 230 229 229 230 230 229 229 228 226 223 222 222 222 220 217 210 204 199 195 192 190 189 188 186 185 183 181 180 181 181 181 179 178 177 176 174 174 174 175 177 179 180 181 183 185 185 184 184 184 185 185 186
329 313 297 281 266 255 247 244 241 239 238 238 240 241 241 241 240 239 237 235 233 232 231 231 231 228 223 218 216 213 210 206 202 198 194 189 185 183 181 180 179 178 177 176 176 175 174 173 173 172 171 170 169 169 171 174 178 181 182 183 184 185 185 185 184 184 184 185 186
9 1 350 335 313 288 265 251 243 239 237 237 239 242 245 247 247 247 244 239 234 230 229 229 232 231 225 216 209 204 200 197 195 192 189 184 180 177 175 173 173 172 171 171 170 168 167 166 166 166 166 165 165 167 171 177 181 183 184 184 185 186 186 186 186 186 186 186 186
15 11 7 3 359 350 333 303 276 261 254 250 250 250 251 251 251 249 245 239 231 226 224 226 234 234 226 211 200 194 190 189 188 186 183 179 175 172 170 168 168 168 168 167 165 163 161 159 160 161 162 164 166 170 175 180 183 184 185 185 186 186 187 187 188 188 188 187 186
16 13 12 12 16 16 15 12 2 347 329 315 307 296 283 268 252 242 235 229 222 219 220 226 235 234 223 203 190 184 181 180 181 180 177 173 171 168 166 165 166 167 167 168 166 164 161 159 159 161 165 168 171 174 177 180 182 183 183 184 186 187 187 188 189 190 189 188 186
15 14 14 16 21 24 27 28 27 23 18 11 6 358 345 322 281 247 225 209 204 208 218 229 235 235 224 200 181 172 168 167 173 175 174 172 169 168 166 166 167 169 171 172 172 170 168 166 166 168 171 173 176 176 177 178 179 180 181 183 184 186 187 189 190 190 189 186 184
12 13 14 18 22 25 28 30 29 27 23 19 17 14 10 4 352 331 275 204 197 204 217 226 231 233 229 213 181 163 155 155 162 167 171 173 173 172 171 171 173 175 176 177 176 175 173 171 172 173 175 176 177 178 178 177 178 179 180 181 181 182 184 186 187 186 185 182 181
12 15 17 20 22 25 28 29 28 26 23 21 17 14 13 15 13 9 2 347 311 279 261 239 229 225 223 218 199 180 165 160 160 163 168 174 177 177 177 176 178 180 181 181 179 177 175 174 175 175 177 178 179 180 180 180 180 181 181 181 180 181 182 182 180 177 176 177 180
15 19 21 23 24 26 29 30 29 29 27 24 18 14 14 18 22 23 23 21 14 3 350 332 306 257 223 211 201 194 188 185 185 185 184 183 182 181 180 181 182 183 183 182 178 176 176 175 176 177 178 179 181 182 184 185 185 186 185 185 184 184 183 182 177 173 171 175 180
16 21 23 24 26 28 29 30 31 30 29 26 21 18 18 20 23 25 25 23 20 17 13 5 355 341 314 250 210 198 194 196 200 202 202 200 198 194 189 185 184 185 184 181 177 176 175 175 175 175 176 178 180 182 185 188 188 189 190 190 191 191 191 189 182 177 175 176 181
17 21 23 25 27 29 29 29 29 29 27 25 22 20 20 21 24 25 24 21 17 15 14 13 7 0 352 342 328 262 203 196 201 204 206 206 203 200 197 194 191 189 185 179 176 175 175 174 173 172 173 175 177 179 181 184 187 189 191 192 194 196 197 196 191 186 182 181 182
15 19 21 25 27 28 28 28 28 27 26 24 22 21 21 23 25 26 24 22 19 16 14 11 8 7 6 5 1 357 352 343 267 202 199 201 202 202 200 196 193 189 184 178 177 176 175 172 170 169 169 171 173 175 177 177 180 184 187 190 192 195 197 198 195 192 189 186 184
12 15 19 23 25 26 26 27 27 26 24 23 22 23 23 25 25 24 23 22 20 18 15 10 8 9 10 10 7 6 4 1 355 347 323 196 193 194 195 192 191 188 184 181 180 179 177 173 169 167 167 167 168 171 174 175 177 180 183 186 188 191 192 194 194 193 191 187 183
10 13 17 20 22 24 25 25 25 25 24 24 23 24 24 25 24 23 21 20 19 17 14 11 14 16 15 12 10 10 10 9 6 1 354 339 301 220 197 185 178 186 190 189 187 185 182 177 172 169 166 165 165 168 173 175 177 180 183 186 188 188 188 188 188 187 185 181 177
10 12 14 17 19 21 22 23 24 24 24 25 24 25 25 24 22 21 19 18 16 14 14 17 21 21 20 17 15 14 14 14 14 12 8 360 349 336 308 252 232 201 194 195 195 194 190 184 178 173 170 168 168 171 175 177 179 182 185 188 190 190 189 188 186 183 180 175 172
10 11 14 16 17 17 18 19 21 22 24 25 25 25 25 24 22 20 18 16 14 14 15 18 21 21 20 18 17 17 16 17 17 16 15 14 11 8 6 4 5 358 341 251 203 197 196 193 186 181 177 175 175 177 178 178 180 183 187 190 192 193 193 192 189 184 179 174 172
9 11 13 14 14 14 14 15 17 19 21 24 25 24 23 22 21 19 18 17 15 15 16 18 19 20 19 18 17 17 17 18 17 16 16 16 18 19 19 17 12 3 353 338 281 211 196 194 193 190 187 184 183 182 181 179 180 182 186 189 192 194 194 193 190 185 180 176 174
8 10 12 13 13 13 13 13 14 16 19 21 22 22 21 20 20 19 18 17 16 17 18 19 20 21 20 20 19 18 18 18 17 17 16 15 17 19 19 18 12 7 4 360 345 293 211 194 194 194 194 191 188 185 182 180 180 181 183 186 189 191 191 190 187 183 180 176 175
7 9 10 11 12 12 12 12 13 15 17 18 18 18 18 19 19 18 16 15 17 19 20 21 21 22 22 22 21 20 19 18 17 17 17 16 17 19 20 18 14 12 12 14 7 357 324 220 200 195 193 191 189 185 182 181 180 181 182 183 184 186 186 186 183 181 178 176 175
6 8 9 10 10 11 11 11 12 14 15 15 14 14 14 15 15 15 14 14 18 20 21 21 22 22 22 22 22 21 19 18 17 16 16 17 17 18 19 18 16 16 17 19 19 16 10 357 309 205 192 187 185 183 182 183 181 181 181 181 182 182 182 182 180 178 177 176 175
6 7 8 9 10 10 10 11 12 13 13 13 12 11 10 10 11 11 11 13 17 19 20 21 21 22 22 21 22 21 20 19 18 17 17 17 17 16 16 16 15 16 19 21 24 24 23 20 17 14 11 182 176 177 179 181 180 179 179 180 180 179 179 178 176 175 175 175 174
5 6 7 9 10 10 10 11 12 12 12 11 9 8 8 8 8 8 9 11 14 16 17 19 20 20 20 20 21 21 21 21 20 20 19 18 16 14 13 13 13 14 17 21 24 26 27 27 24 21 17 10 5 8 165 169 168 170 172 173 173 173 173 173 172 172 173 174 171
3 4 6 8 9 10 10 11 11 11 10 9 8 8 7 8 7 6 6 8 11 13 14 17 17 17 17 17 20 21 21 22 22 21 20 18 16 14 12 12 10 11 13 18 23 27 29 30 29 27 24 18 10 5 8 40 117 137 144 149 151 156 160 163 166 169 171 172 169
2 3 4 6 7 8 9 10 10 9 9 8 8 8 7 6 5 4 4 6 8 10 12 14 13 13 13 15 18 20 20 21 21 20 20 18 15 13 12 12 9 8 10 14 20 24 28 32 33 32 30 25 17 12 11 16 40 65 84 102 116 125 131 137 150 160 166 169 168
1 2 3 4 5 7 7 8 7 7 7 8 8 6 5 4 5 5 5 6 7 8 9 9 9 10 11 13 16 17 18 19 18 18 17 17 15 14 12 11 9 7 7 9 14 19 24 28 32 34 35 34 27 23 20 21 31 40 47 56 74 92 104 106 114 135 152 162 167